GFSNE_prec_cloud_057.txt.gz
Cloud_Cover
95 100 99 59 70 27 45 5 6 5 5 16 34 5 0 0 0 0 0 0 0 0 2 5 5 5 5 58 93 100 100 100 100 100 100 100 100 100
75 87 86 74 70 5 5 5 5 10 16 51 29 5 4 1 0 0 0 0 0 0 4 5 5 5 10 26 78 97 95 100 100 100 100 99 100 99
94 80 83 62 64 5 5 5 5 19 92 5 5 5 4 4 5 3 0 0 0 2 5 5 5 5 5 24 5 12 5 26 89 100 100 100 100 100
100 100 97 5 5 5 5 5 6 82 80 5 6 18 5 5 5 2 0 1 5 0 4 5 5 5 42 59 74 41 70 94 94 83 93 100 99 100
86 53 6 8 6 5 5 5 83 41 16 40 5 27 5 5 5 1 5 5 5 0 0 5 5 5 5 5 5 5 5 5 5 5 5 5 5 5
70 6 45 11 5 12 5 5 22 57 95 72 85 17 16 5 5 1 14 82 5 4 5 22 3 5 5 5 5 5 5 5 5 5 5 5 5 5
6 28 8 5 40 21 5 31 90 90 98 100 99 100 63 52 5 5 5 51 42 5 9 99 5 5 5 5 3 4 5 5 5 36 14 5 5 5
31 5 13 29 84 47 35 63 81 96 100 100 100 100 70 92 5 5 5 11 8 5 5 75 5 5 5 5 0 5 5 20 5 5 72 5 5 5
32 25 22 100 96 5 5 96 39 61 90 78 100 93 92 69 3 7 77 99 93 5 13 70 5 18 67 5 0 5 5 5 5 5 6 5 5 5
71 67 100 97 9 5 5 68 81 28 12 32 28 86 96 5 5 90 100 100 100 64 7 84 23 72 65 5 0 3 5 5 5 5 5 5 5 5
58 100 94 9 5 22 18 40 36 41 5 5 5 5 5 5 19 91 100 100 100 73 10 100 96 86 29 47 5 5 5 5 5 5 5 5 5 5
69 69 12 5 5 100 20 71 98 38 98 64 23 27 5 5 5 48 100 100 100 96 23 83 100 95 91 67 87 77 22 9 19 6 5 5 6 89
5 5 5 5 5 58 5 65 42 63 100 99 73 41 23 62 100 100 100 100 100 99 76 94 100 100 100 97 96 96 95 89 86 83 78 44 93 100
5 5 5 4 5 65 75 84 100 90 96 95 95 99 99 100 96 100 98 75 99 86 98 98 99 100 100 100 96 64 93 96 95 100 100 100 100 99
99 52 6 67 90 97 92 96 100 100 100 100 83 100 91 89 98 86 98 66 82 23 63 61 56 97 100 100 98 100 99 81 97 100 100 100 100 85
59 60 100 100 100 100 100 100 100 100 98 100 100 96 100 100 100 91 100 100 100 76 78 50 5 5 11 55 95 94 100 100 97 100 100 100 100 100
12 63 100 92 100 100 100 100 100 100 100 100 100 100 100 100 100 97 100 99 100 99 97 70 9 17 98 94 95 100 100 100 100 100 100 100 100 100
60 69 99 86 100 100 100 100 100 100 100 100 100 100 100 100 100 100 99 100 100 97 100 82 20 84 95 67 69 100 100 100 100 100 100 100 100 100
100 68 70 85 84 100 100 100 100 100 100 100 100 100 100 100 100 100 100 100 100 100 100 71 55 80 100 100 99 92 100 96 100 94 100 100 100 100
100 100 97 97 100 100 100 100 100 100 100 100 100 100 100 100 100 100 100 100 100 97 84 50 20 42 97 100 100 94 100 100 100 100 99 100 100 100
100 96 100 100 100 100 100 98 96 100 100 100 100 100 100 100 100 100 100 80 79 78 79 45 26 5 5 92 100 99 100 100 95 100 100 99 100 100
100 100 100 100 100 100 100 100 100 100 100 100 100 100 100 100 100 100 97 100 95 99 94 44 55 14 50 100 100 100 100 100 99 100 100 95 100 100
100 100 100 100 100 100 100 100 100 100 100 100 100 100 100 100 100 100 100 93 100 100 95 33 84 9 5 90 71 98 100 99 100 100 99 100 96 100

GFSNE_prec_cloud_060.txt.gz
Cloud_Cover
100 100 100 66 39 42 49 6 5 5 5 5 5 53 85 59 16 5 4 0 0 0 0 0 1 5 5 5 60 80 92 97 100 100 100 100 100 100
100 91 93 88 94 27 45 5 5 5 5 29 5 43 71 39 18 3 5 2 0 0 0 1 5 5 5 5 5 5 32 50 88 100 100 100 100 100
100 100 93 89 90 61 47 75 32 6 5 20 45 80 86 93 99 66 5 4 0 0 0 0 5 5 5 5 5 11 6 82 98 100 100 100 100 100
87 99 100 100 100 100 100 88 62 22 48 5 89 74 100 100 100 99 17 1 0 0 0 0 4 2 5 5 28 42 48 9 7 60 93 100 100 100
100 100 100 100 100 100 100 100 40 46 95 100 77 100 100 100 100 100 66 4 0 0 0 0 0 2 5 5 5 5 5 5 5 5 5 45 25 14
99 98 100 100 100 94 100 79 73 76 100 100 100 100 100 100 100 100 100 4 0 0 0 3 3 3 2 4 4 5 5 5 5 5 5 5 5 5
100 100 100 97 93 100 96 37 58 93 90 94 98 100 100 100 100 100 92 4 1 5 5 6 13 30 79 94 78 49 4 5 5 5 63 11 85 63
100 100 52 63 98 79 37 5 5 9 62 100 100 100 100 100 100 100 87 5 5 5 5 5 6 35 80 100 99 5 0 5 5 10 29 33 12 25
75 5 39 98 89 8 54 13 5 5 6 85 90 99 100 100 100 100 91 44 9 5 5 5 48 95 100 100 100 5 5 5 5 5 5 5 5 5
8 22 75 22 16 98 92 100 100 100 87 89 73 91 100 100 100 100 96 95 88 89 85 68 74 98 100 100 88 5 5 5 5 5 5 5 5 5
5 5 5 5 11 70 90 41 87 98 97 92 23 94 100 75 52 38 96 100 100 94 97 96 90 84 100 100 100 99 11 5 5 5 5 5 5 5
5 5 6 5 5 5 45 33 96 36 100 100 99 20 53 96 100 93 100 100 100 100 91 81 100 78 98 100 100 100 100 100 50 74 100 95 83 95
74 43 46 43 75 5 39 88 61 90 98 100 100 100 100 100 100 100 91 100 100 100 100 94 100 99 100 99 100 100 100 100 100 98 100 100 100 100
5 5 21 58 94 100 86 70 96 99 100 100 99 100 100 100 100 100 100 100 100 100 100 100 100 100 100 100 100 100 100 100 100 88 91 93 100 100
5 5 5 5 13 90 100 100 99 100 100 100 100 100 100 100 100 100 100 100 100 100 100 100 100 100 100 100 98 100 100 100 93 98 100 99 100 100
9 5 7 4 5 14 84 100 100 100 100 100 100 100 100 100 100 100 100 100 100 100 100 100 100 100 100 100 100 100 100 100 80 100 100 100 100 97
97 79 56 65 54 61 88 80 100 100 100 100 100 100 100 100 100 100 100 100 100 100 100 100 100 100 98 98 100 100 100 100 98 100 100 100 96 100
64 100 82 28 11 71 87 96 100 100 100 100 100 100 100 100 100 100 100 100 100 100 100 100 100 100 100 97 70 100 100 100 100 100 100 100 82 100
100 100 100 99 100 98 100 95 100 100 100 98 94 100 100 100 100 100 100 100 100 100 100 100 100 100 100 100 100 94 98 100 100 100 100 100 96 98
100 100 100 100 100 100 100 100 100 100 99 83 100 100 100 100 100 100 100 100 100 100 100 100 100 100 97 100 100 86 65 67 100 100 100 100 94 86
100 100 100 100 100 100 100 100 99 100 100 100 100 100 100 100 100 100 100 100 94 100 100 100 100 19 5 79 99 100 100 61 66 88 100 97 99 100
100 100 100 100 100 100 100 100 100 100 99 100 100 100 100 100 100 100 100 100 96 100 100 100 75 52 40 100 100 94 99 98 79 43 26 43 98 100
100 100 100 100 100 100 100 100 100 100 100 100 100 100 100 100 100 100 100 100 100 100 100 100 84 56 40 63 74 100 93 95 100 100 100 7 5 5

GFSNE_prec_cloud_063.txt.gz
Cloud_Cover
100 100 100 100 100 87 96 100 90 56 59 100 100 42 14 86 75 5 5 5 5 0 0 0 0 0 5 5 5 5 5 83 100 100 100 100 100 100
100 100 100 100 99 99 94 76 30 44 7 97 71 13 5 5 47 5 2 5 6 5 1 0 0 0 5 5 5 5 22 62 92 100 100 100 100 100
100 100 100 99 97 100 100 84 84 100 44 5 7 59 23 90 51 68 98 47 35 5 3 0 0 0 0 5 5 5 5 46 100 100 100 100 100 100
100 100 100 100 100 100 100 100 100 94 58 39 33 56 65 45 5 7 40 37 88 98 5 0 0 0 0 0 4 5 5 10 70 7 41 100 100 100
100 100 100 100 100 100 100 100 100 71 94 80 25 16 93 92 85 68 24 38 68 82 2 1 0 0 0 0 0 0 1 5 5 5 5 5 13 79
100 94 95 98 100 100 100 100 100 93 79 91 56 42 74 71 100 94 29 100 89 79 5 5 5 3 5 5 5 2 3 5 5 5 5 5 5 36
100 76 93 100 100 100 100 100 100 60 55 85 71 87 76 78 90 57 100 100 59 93 18 59 83 29 5 10 17 95 32 9 4 5 5 5 52 61
86 88 100 100 100 53 61 76 94 12 5 5 5 5 6 99 87 96 100 100 97 96 100 47 88 24 77 36 99 17 5 5 0 3 5 5 5 5
96 96 96 72 47 57 78 96 92 15 5 19 17 5 5 22 42 65 100 100 100 89 98 8 74 69 98 82 55 47 6 5 4 5 4 4 5 5
39 29 5 5 5 6 84 40 12 19 31 98 83 23 75 34 59 100 99 83 56 73 94 76 92 82 82 20 5 76 13 5 4 5 0 2 5 5
5 5 5 5 5 6 24 28 5 5 12 100 100 100 92 5 99 100 100 100 11 94 100 96 72 23 82 5 28 72 5 76 10 5 5 10 64 5
5 9 5 5 5 5 62 26 5 5 5 63 100 100 79 18 100 100 90 74 96 72 100 98 99 89 32 14 86 55 40 34 27 5 5 88 92 58
5 5 5 5 5 4 6 67 84 53 11 5 63 99 61 90 64 91 97 26 90 100 100 100 99 99 100 74 78 80 89 53 78 31 5 96 100 95
5 5 5 5 5 4 3 3 8 89 100 96 100 100 100 85 100 95 92 28 59 84 100 100 92 96 99 73 87 40 87 12 27 7 65 100 77 88
5 5 5 5 5 5 5 5 21 66 99 100 100 100 100 100 100 100 100 100 95 79 100 100 81 98 99 95 80 85 91 82 10 94 100 44 87 100
5 5 5 5 6 6 5 12 31 62 100 100 100 88 100 100 71 66 100 92 98 91 100 99 74 30 89 99 96 33 92 98 30 100 52 75 88 40
43 14 79 43 39 39 34 33 9 100 92 100 100 100 100 100 100 100 100 100 100 100 100 96 95 83 85 32 14 100 96 84 99 71 91 67 67 50
53 95 100 100 100 100 97 83 41 78 60 100 100 100 100 100 98 100 99 100 100 100 100 100 96 98 92 42 99 99 100 100 78 97 98 85 66 23
84 94 100 100 100 100 100 100 100 91 96 100 100 100 100 100 97 83 99 100 100 100 100 100 100 100 100 100 94 86 93 99 100 100 100 100 100 46
100 100 100 100 100 100 100 100 100 100 100 100 100 100 100 74 80 99 100 100 100 100 100 100 100 100 100 87 66 10 12 82 99 100 100 92 44 91
100 100 100 100 100 100 100 100 100 100 100 100 78 100 100 100 94 100 100 100 100 100 100 100 100 85 12 8 27 18 100 80 60 71 91 97 90 88
100 100 100 100 100 100 100 100 100 100 100 100 100 97 93 100 98 100 100 100 100 100 100 100 100 62 68 96 66 57 95 62 17 5 20 31 73 96
100 100 100 100 100 100 100 100 100 100 100 100 100 100 100 100 100 100 100 100 100 100 100 100 100 100 89 89 69 64 94 79 62 67 59 96 6 5

GFSNE_prec_cloud_069.txt.gz
Cloud_Cover
100 100 100 100 100 100 100 100 100 99 66 100 100 100 84 3 5 3 5 5 5 5 5 4 0 0 0 0 0 0 0 0 5 5 24 79 100 100
100 100 100 100 100 100 100 100 91 56 11 21 69 5 5 46 5 0 0 2 5 5 5 0 5 0 5 1 0 0 0 0 2 5 68 99 100 100
100 100 100 100 100 100 96 77 52 64 49 54 12 5 7 5 5 2 3 5 5 5 4 5 5 5 5 2 0 0 0 0 0 5 5 100 100 100
100 100 100 100 100 78 76 72 8 53 100 32 47 5 5 5 5 37 67 75 78 92 10 5 45 5 5 4 3 2 0 0 0 5 5 5 5 11
100 100 100 100 95 96 97 100 100 63 94 38 23 34 6 5 6 80 97 22 97 87 26 100 35 5 42 5 22 5 3 5 4 34 72 5 5 5
100 100 100 100 93 66 58 14 5 5 5 5 13 15 80 79 100 97 24 4 9 98 94 99 68 8 5 34 5 6 5 5 27 17 36 47 5 5
100 100 98 97 17 7 63 92 75 52 97 100 33 10 27 19 5 30 100 100 100 83 100 100 99 72 5 5 12 6 5 6 13 5 5 5 55 18
100 26 22 5 10 51 55 56 82 84 86 94 94 99 35 44 9 8 96 100 98 97 100 100 100 5 5 8 32 5 28 24 5 5 5 5 8 5
5 52 100 16 7 12 5 7 11 17 10 6 5 17 89 54 88 98 87 100 94 100 100 82 67 4 4 5 5 5 57 9 83 5 5 5 5 5
100 100 100 79 11 9 90 94 96 94 22 5 5 5 28 79 94 52 56 27 93 100 100 44 5 1 5 2 3 95 28 88 85 5 5 69 100 94
100 99 81 95 100 84 9 5 94 100 73 61 19 6 5 5 17 100 100 100 100 90 100 96 5 5 4 1 5 52 5 6 54 7 95 100 100 98
51 90 53 21 6 24 74 62 55 45 100 64 75 10 7 5 5 5 66 100 100 100 100 100 5 5 5 5 3 58 5 11 5 5 27 97 92 8
60 45 50 78 33 100 99 100 100 100 58 99 100 100 84 25 76 84 91 100 100 84 85 97 5 5 5 5 6 100 21 13 13 5 5 5 29 61
77 97 99 97 98 97 100 100 100 72 31 93 88 81 92 96 99 89 73 100 100 100 100 89 98 46 6 5 5 95 58 15 6 5 5 71 98 97
100 100 100 100 100 100 100 100 100 49 67 97 99 91 100 88 98 100 100 100 100 100 100 100 99 63 62 78 43 90 48 93 5 6 94 82 49 39
90 92 100 100 100 100 100 100 93 23 97 100 100 100 87 100 100 85 92 100 100 100 100 100 40 92 80 71 5 64 50 79 34 68 100 54 84 63
94 100 100 100 100 100 100 99 96 63 100 100 100 94 100 100 96 97 100 100 100 100 100 100 80 99 92 45 22 56 54 31 5 38 99 23 69 14
100 100 100 100 100 100 96 98 86 95 100 100 100 100 100 100 100 100 100 100 100 100 100 96 88 96 55 100 80 93 50 6 39 53 27 36 96 72
100 100 100 100 100 99 81 100 100 96 96 100 100 100 100 100 100 100 100 100 100 100 100 100 86 100 96 100 100 90 96 82 76 14 33 84 55 99
100 100 100 100 99 39 51 82 91 98 100 100 100 100 100 100 100 100 100 100 100 100 85 98 98 82 91 100 100 85 98 70 37 56 9 5 19 22
100 100 100 100 91 88 60 31 77 92 77 100 100 100 100 100 100 100 100 100 100 90 92 71 100 97 100 100 100 90 88 100 76 37 17 64 59 99
100 100 100 77 38 33 61 81 90 7 88 93 100 100 100 100 100 100 98 100 99 70 59 100 100 100 100 100 100 97 88 99 98 47 50 60 98 94
100 97 74 56 57 46 86 99 25 7 100 79 100 100 100 100 100 100 100 100 100 100 100 100 100 100 100 100 100 94 98 100 100 90 34 9 100 100

GFSNE_prec_cloud_072.txt.gz
Cloud_Cover
100 100 100 100 100 100 100 100 100 100 100 90 58 98 21 5 5 5 5 5 5 5 5 5 73 70 5 0 5 0 0 0 0 4 5 6 73 99
100 97 81 73 91 100 100 100 100 100 100 100 5 16 6 5 5 4 3 3 2 2 3 2 2 12 4 4 4 3 0 0 0 2 5 5 85 100
100 100 99 100 100 100 100 100 100 98 82 20 24 8 5 5 5 5 5 1 2 3 5 5 52 100 90 87 69 51 0 5 4 3 3 5 79 100
100 100 100 100 100 100 100 100 57 43 7 22 5 11 5 5 51 29 23 5 5 5 2 5 5 38 91 100 24 5 5 5 8 14 0 0 5 7
100 100 100 100 100 100 99 74 98 100 100 96 50 5 15 18 33 46 23 94 42 99 15 100 92 74 100 100 100 6 5 25 97 4 1 3 3 5
100 100 100 100 100 95 100 100 94 38 5 5 16 16 21 88 83 96 22 9 51 92 84 98 78 100 100 100 94 26 5 5 18 53 85 5 5 5
100 100 100 85 98 100 92 27 5 5 24 6 6 5 5 5 5 11 94 93 38 5 5 19 100 83 100 100 100 78 5 80 42 7 5 12 16 5
100 100 100 49 28 38 5 5 5 5 5 5 58 6 6 5 50 93 100 85 56 5 5 63 94 72 100 100 100 98 89 98 5 5 5 92 10 5
100 56 5 5 5 5 12 6 5 5 6 53 5 5 5 68 39 91 100 96 92 44 30 41 16 61 100 100 100 24 5 5 5 5 5 5 10 5
10 27 6 5 5 12 5 5 21 26 20 8 42 69 96 100 100 93 93 10 25 85 100 100 61 89 100 100 100 50 4 5 5 5 5 5 5 5
16 7 5 5 5 5 5 5 89 65 27 74 100 96 100 100 100 99 97 100 68 5 70 100 95 81 100 100 100 27 2 5 10 70 36 5 5 5
5 5 5 5 5 34 12 94 100 100 64 100 100 100 100 100 100 93 99 100 100 100 84 79 82 95 94 100 100 5 5 5 5 5 7 9 5 5
5 18 5 7 16 49 66 96 45 61 92 100 100 100 98 99 100 95 100 100 80 84 100 100 83 100 100 100 10 78 10 5 5 12 54 5 5 12
54 78 76 66 78 68 54 37 74 99 91 91 100 100 100 100 93 69 95 98 100 86 48 100 99 100 100 100 22 100 14 5 5 94 28 5 5 46
100 100 100 100 100 100 100 100 100 100 100 100 100 100 100 98 90 95 99 74 100 98 100 100 100 100 96 45 100 88 5 26 44 51 98 11 84 89
100 100 100 100 100 100 100 100 100 100 100 100 100 100 100 100 100 95 100 100 100 100 96 100 100 100 100 100 18 6 5 55 94 100 97 56 100 20
100 100 100 100 99 100 100 100 100 100 100 100 100 100 100 100 100 68 20 96 100 84 100 100 100 95 83 86 82 5 36 88 98 70 44 77 74 80
100 100 100 100 100 100 100 100 100 100 100 100 100 100 100 100 100 59 71 100 100 94 100 100 100 100 100 90 5 5 52 92 56 62 58 76 17 20
100 100 100 100 100 100 100 100 100 100 100 100 100 100 100 100 100 100 100 100 100 100 100 100 100 100 91 77 94 69 93 72 92 80 14 24 28 6
100 100 100 100 100 100 100 100 100 100 100 36 100 68 100 100 100 100 100 100 100 100 100 81 92 95 85 33 100 98 99 100 100 100 57 37 14 6
100 100 100 100 100 100 100 100 100 93 8 5 100 50 100 98 100 100 100 100 100 100 100 100 99 95 100 94 100 100 95 100 69 59 84 75 72 49
100 100 100 100 100 100 97 94 87 9 44 86 100 99 62 63 100 100 100 100 100 100 100 100 97 99 87 100 100 100 78 100 100 83 94 34 55 80
100 100 100 100 99 66 98 54 15 70 62 100 100 100 92 100 100 100 100 100 100 100 100 100 100 100 100 100 100 100 99 100 89 94 93 76 38 100

GFSNE_prec_cloud_075.txt.gz
Cloud_Cover
99 71 100 100 83 100 100 100 100 100 100 99 99 12 36 40 5 7 33 5 5 5 5 5 5 5 5 3 5 5 5 5 5 3 5 5 5 68
100 100 100 100 100 100 100 100 100 100 100 89 47 100 42 5 5 5 5 5 5 5 5 1 3 5 5 5 5 5 41 100 37 5 4 5 5 96
100 100 100 100 100 100 100 96 100 100 100 100 97 53 32 48 6 10 11 5 20 5 5 4 5 5 5 5 64 11 98 100 65 49 5 6 5 49
100 100 100 100 100 100 100 100 100 100 100 57 5 52 98 80 87 75 67 60 18 54 5 5 5 84 99 9 84 100 100 100 100 100 95 100 5 5
100 100 100 100 100 100 100 100 100 100 100 98 100 100 88 98 28 40 54 26 6 5 54 79 11 72 6 58 82 28 98 100 100 100 100 41 5 6
100 100 100 100 100 100 100 100 100 98 100 95 48 61 50 72 47 5 7 33 40 17 100 49 6 10 38 5 8 13 100 100 100 100 100 5 15 5
100 100 100 100 94 100 100 100 100 93 54 69 52 14 59 5 5 5 5 34 86 42 6 7 5 6 88 8 99 100 94 100 100 94 5 26 49 5
100 100 100 100 100 100 100 100 95 84 22 22 7 5 5 5 5 35 26 16 5 98 100 12 5 53 33 38 72 87 90 100 100 74 75 72 4 5
100 100 100 100 100 99 81 85 23 5 28 27 8 10 41 76 40 14 14 18 87 12 14 20 53 54 8 22 20 100 100 90 79 95 6 5 5 4
100 100 100 100 100 75 7 10 81 35 5 38 36 19 22 53 88 98 100 100 100 97 99 93 99 22 5 99 92 100 100 99 100 41 4 5 5 5
100 100 100 100 100 100 81 96 100 100 99 99 100 100 100 100 88 65 91 100 87 100 100 98 68 96 94 86 39 100 100 100 22 5 5 71 5 5
13 100 100 42 100 100 100 99 100 100 100 100 100 100 100 100 100 100 100 100 100 96 100 100 22 62 100 40 68 100 83 55 86 54 99 18 5 5
100 100 100 100 100 100 100 100 100 100 100 100 100 100 100 100 100 100 100 100 100 99 100 98 90 93 96 100 86 100 100 98 31 66 73 5 5 8
100 100 100 100 100 100 100 95 98 100 99 78 76 94 100 96 100 100 100 100 100 100 15 100 99 77 98 100 100 100 100 100 76 10 5 4 46 9
100 100 100 100 100 100 100 100 100 100 98 99 97 89 100 100 100 100 100 100 100 72 73 100 100 100 100 100 100 100 100 100 18 5 5 37 90 10
100 100 100 100 100 100 100 100 100 100 100 98 91 100 100 100 100 100 100 100 99 73 59 100 92 100 100 100 100 100 80 88 31 9 63 100 36 38
100 100 100 100 100 100 100 100 100 100 100 100 100 100 100 100 100 100 100 100 100 99 100 100 100 100 100 100 100 100 100 27 10 6 38 80 61 81
100 100 100 100 100 100 100 100 100 100 100 100 100 100 100 100 100 100 100 100 100 97 100 100 100 100 100 100 100 96 97 33 5 20 99 100 72 81
100 100 100 100 100 100 100 100 100 100 100 100 100 100 100 100 100 100 100 100 99 100 92 100 100 100 100 100 100 91 41 7 13 97 97 84 62 79
100 100 100 100 100 100 100 100 100 100 100 100 100 100 79 100 100 90 100 100 100 100 100 98 100 100 100 100 92 58 51 66 33 100 55 96 100 72
100 100 100 100 100 100 100 100 100 100 100 100 56 90 74 100 100 100 100 100 100 100 100 100 100 100 100 100 84 72 66 84 100 97 94 99 100 86
100 100 100 100 100 100 100 100 100 100 100 98 72 96 76 95 100 100 100 100 100 100 100 100 100 100 100 98 88 90 78 99 100 100 100 96 100 100
100 100 100 100 100 100 100 100 100 100 95 58 100 99 100 100 100 100 100 96 100 100 100 100 100 100 100 100 100 98 100 100 100 100 100 100 100 100

GFSNE_prec_cloud_078.txt.gz
Cloud_Cover
100 100 100 79 100 100 100 100 100 100 100 100 100 100 100 100 100 100 90 32 99 99 5 42 78 10 5 5 5 1 1 5 60 16 5 9 5 5
89 100 100 100 100 100 100 100 100 100 100 100 100 100 100 100 80 58 90 83 100 10 17 12 31 5 5 5 3 3 4 5 100 100 100 100 96 49
100 100 100 100 100 100 100 100 100 100 100 100 100 100 100 98 100 100 100 80 86 99 5 6 46 5 5 5 5 5 5 28 100 48 96 100 100 100
100 100 100 100 100 100 100 100 100 100 100 100 100 100 100 100 100 100 75 52 49 29 90 80 5 5 6 100 100 100 100 50 100 100 100 100 100 100
100 100 100 100 100 100 100 100 100 100 100 100 100 100 100 100 100 100 96 76 100 94 72 46 92 56 100 100 100 100 100 69 90 76 100 100 100 100
100 100 100 100 100 100 100 100 100 100 100 100 100 100 100 100 100 100 77 100 100 100 100 100 100 100 100 100 100 100 87 96 71 96 96 100 90 99
100 100 100 100 100 100 100 100 100 100 100 100 100 100 100 100 100 100 100 100 100 100 90 100 100 100 100 100 100 67 97 42 77 88 100 100 98 100
100 100 100 100 100 100 94 100 100 100 100 100 100 100 100 100 100 100 58 13 99 100 64 89 98 44 80 99 54 83 94 92 92 100 100 96 35 5
98 100 98 100 100 100 100 100 100 98 100 100 100 100 100 100 100 100 78 92 100 75 99 100 93 5 36 7 23 34 5 100 76 91 100 97 91 64
100 100 100 100 100 100 100 100 100 98 97 82 100 100 100 100 100 87 100 100 99 70 57 90 41 5 5 66 94 9 92 100 99 100 100 100 100 24
100 100 100 100 100 100 100 100 94 93 100 88 100 100 100 100 100 91 82 94 93 81 95 94 35 30 88 99 26 98 100 82 100 100 100 100 100 5
100 100 100 100 100 99 70 79 100 100 100 100 100 100 100 100 99 98 87 100 100 48 100 78 99 100 88 29 100 95 99 100 100 100 100 14 80 7
100 100 100 100 100 91 100 100 100 100 100 100 100 100 100 100 100 100 100 100 99 100 100 85 96 100 100 51 92 6 80 100 100 77 100 100 96 5
100 100 93 89 75 97 100 100 100 100 100 100 100 100 100 100 100 100 100 100 100 100 100 100 100 94 100 100 78 27 71 100 99 100 100 100 100 5
100 99 96 100 100 100 100 100 100 100 100 100 99 100 100 100 100 100 100 100 100 100 100 100 100 100 100 100 94 65 100 88 100 100 100 88 6 4
100 100 100 100 100 100 100 100 100 100 100 100 100 100 100 100 100 100 100 100 100 100 100 100 100 100 100 97 100 100 100 100 99 48 23 20 5 5
100 100 100 100 100 100 100 100 100 100 100 100 100 99 100 100 100 100 100 100 100 100 100 100 33 100 100 100 100 100 100 100 100 100 25 10 5 35
100 100 100 100 100 100 100 100 100 100 100 100 100 100 100 100 100 100 100 100 100 100 96 45 80 100 100 100 100 100 94 100 81 28 5 5 92 12
100 100 100 100 100 100 100 100 100 100 100 100 100 100 100 100 100 100 100 100 81 100 96 50 100 100 100 99 100 100 100 100 95 6 5 46 98 56
98 93 100 98 97 100 100 100 100 100 100 100 100 100 100 100 100 100 100 100 100 100 93 58 100 100 100 100 100 100 100 100 62 44 93 100 100 90
100 100 100 100 100 100 100 100 100 100 100 100 100 100 100 100 100 100 100 98 97 100 89 86 100 100 100 100 100 100 100 73 22 5 100 100 100 100
100 100 100 100 100 100 100 100 100 100 100 100 96 74 88 100 100 100 100 100 100 100 100 100 100 100 100 100 100 100 69 19 11 94 100 100 100 100
86 100 100 100 100 100 100 100 100 100 100 100 100 100 100 100 100 100 100 100 100 100 100 100 100 100 100 100 100 94 92 16 76 100 100 100 100 100

GFSNE_prec_cloud_084.txt.gz
Cloud_Cover
100 100 100 100 100 100 100 81 100 100 100 100 100 100 100 100 100 100 10 5 11 5 5 5 81 98 100 100 100 100 100 100 100 100 100 100 100 100
99 100 100 99 99 100 100 100 100 100 100 100 100 100 100 100 100 58 6 59 91 33 5 56 5 5 64 100 100 100 100 100 100 100 100 100 100 100
100 99 98 100 94 100 100 100 100 100 100 100 100 100 100 100 100 99 100 100 98 46 52 5 29 15 64 7 26 62 37 65 85 100 100 100 100 100
78 95 100 100 100 100 100 100 100 100 100 100 100 100 100 100 100 100 100 100 83 74 9 5 5 5 10 5 5 5 5 62 45 96 82 98 100 100
99 100 100 100 100 100 100 100 100 100 100 100 100 100 100 100 100 100 100 100 95 60 5 13 46 97 20 8 33 94 70 94 62 29 99 100 100 100
99 100 100 100 100 100 100 100 100 100 100 100 100 100 100 100 100 100 100 92 60 81 91 99 100 100 100 100 100 93 100 89 56 95 100 100 100 100
100 100 100 100 100 100 100 100 100 100 100 100 100 100 100 100 100 100 87 100 92 100 100 100 100 100 100 100 100 100 100 100 100 100 100 97 100 100
100 100 100 100 100 100 100 100 100 100 100 100 100 100 100 100 100 100 100 100 100 99 100 100 100 100 100 100 100 100 100 100 100 100 100 100 100 100
100 100 100 100 100 100 100 100 100 100 100 100 100 100 100 100 100 100 100 91 100 100 58 71 100 100 100 100 100 100 100 100 100 100 100 100 100 100
100 100 100 100 100 100 100 100 100 100 100 100 100 100 100 100 100 100 100 95 100 100 100 100 100 100 100 100 100 100 100 100 98 80 100 100 100 94
100 100 100 100 100 100 100 100 100 100 100 100 100 100 100 100 100 100 100 100 100 100 100 100 100 100 100 100 100 100 100 100 99 21 94 100 73 97
100 100 100 100 100 100 100 100 100 100 100 100 100 100 100 100 100 100 100 100 100 100 100 100 100 100 100 100 100 100 99 87 43 77 100 100 100 93
100 100 100 100 100 100 100 100 100 100 100 100 100 100 100 100 100 100 100 100 100 100 100 100 100 100 95 98 100 100 100 100 100 97 100 97 99 100
100 100 100 100 100 100 100 100 100 100 100 100 100 100 100 100 100 100 100 100 100 100 100 100 100 100 85 32 69 100 100 100 100 100 93 85 94 100
100 100 100 100 100 100 100 100 100 100 100 100 90 100 100 100 100 100 100 100 100 100 100 100 100 100 100 99 100 100 95 13 95 95 73 100 95 100
100 100 100 100 100 98 93 100 100 100 100 100 100 99 97 100 100 100 100 100 100 100 100 100 100 100 100 70 53 5 61 99 99 98 90 96 100 100
100 100 100 100 100 100 100 100 100 100 100 100 100 100 100 100 100 100 100 100 100 100 99 100 100 100 100 99 32 19 5 67 88 100 99 100 100 100
100 100 100 100 100 100 100 100 100 100 100 100 100 100 100 100 100 100 100 100 100 100 100 100 100 100 86 15 9 16 9 58 100 100 100 100 100 95
100 100 100 100 100 100 100 100 100 100 100 100 100 100 100 100 100 100 100 100 100 100 100 100 100 100 100 84 20 11 100 100 100 100 90 100 100 100
100 100 100 100 100 100 100 100 100 100 100 100 100 100 100 100 100 100 100 100 100 100 100 100 100 100 100 100 99 5 100 100 100 100 100 100 100 69
100 100 100 100 100 100 100 100 100 100 100 100 100 100 100 100 100 100 100 100 100 100 100 100 100 100 100 100 100 96 86 100 100 100 100 100 100 100
100 100 100 100 100 100 100 100 100 100 100 100 100 100 100 100 100 100 100 100 100 100 100 100 100 100 100 100 100 100 99 100 100 100 100 100 100 100
100 100 100 100 100 100 100 100 100 100 100 100 100 100 100 100 100 100 100 100 100 100 100 100 100 100 100 100 100 100 100 100 100 100 100 100 56 5

GFSNE_prec_cloud_090.txt.gz
Cloud_Cover
100 100 100 100 100 100 100 100 100 100 100 100 100 100 100 100 100 100 100 100 99 86 100 99 90 76 62 96 6 20 27 12 5 5 29 99 100 100
100 100 100 100 100 100 100 100 100 100 100 100 85 81 100 98 100 100 100 100 100 100 78 99 98 5 9 53 98 95 8 24 55 94 100 100 100 100
100 100 100 100 100 99 100 100 100 100 83 86 74 62 100 81 96 100 28 81 81 92 100 100 100 100 100 100 98 100 100 100 100 100 100 100 100 100
100 100 100 100 99 80 99 66 82 100 100 100 100 100 100 96 100 99 100 100 74 100 100 100 100 100 97 100 85 100 100 100 100 100 100 100 100 100
100 100 99 100 100 100 99 96 92 83 100 100 100 100 100 100 100 100 100 100 100 100 100 100 100 100 100 100 100 100 100 100 100 100 100 100 99 100
55 30 75 100 86 67 94 41 80 100 100 100 100 100 100 100 100 100 100 100 100 100 100 100 100 100 100 100 100 100 100 100 100 100 100 94 92 100
32 94 58 79 95 95 100 100 100 100 100 100 100 100 100 100 100 100 100 100 100 100 100 100 100 100 100 100 100 100 100 100 100 100 100 97 100 100
72 100 100 100 100 100 100 100 100 100 100 100 100 100 100 100 100 100 100 100 100 100 100 100 100 89 100 100 100 100 100 100 100 100 100 100 100 100
100 100 100 100 100 100 100 100 100 100 100 98 100 100 100 100 100 100 100 100 100 100 100 85 100 100 100 100 100 100 100 100 100 100 100 100 100 100
100 100 100 100 100 100 100 100 100 100 100 100 100 100 100 99 100 100 100 100 100 100 100 100 100 100 100 100 100 100 100 100 100 100 100 100 100 100
100 100 100 100 100 100 100 100 100 100 100 100 74 100 100 100 100 100 100 100 100 100 100 100 100 100 100 100 100 100 100 100 100 100 100 100 100 100
100 100 100 100 100 100 100 100 100 100 100 86 100 100 100 98 100 100 99 99 97 83 100 100 92 64 58 100 100 99 99 100 100 100 100 97 100 98
100 100 100 100 100 100 100 100 100 100 99 99 98 97 100 100 100 100 100 100 100 97 97 91 52 52 61 70 93 5 43 91 94 98 100 100 100 100
100 100 100 100 100 100 100 100 97 100 100 98 98 100 100 100 98 74 88 72 86 96 98 96 74 43 80 95 75 31 6 63 23 7 85 100 100 100
100 100 100 100 100 100 100 100 100 100 100 100 100 100 85 91 74 22 67 43 75 98 84 97 99 100 100 100 93 53 5 5 9 89 98 100 100 100
100 100 100 100 100 100 100 100 100 100 100 100 94 79 87 97 53 68 64 44 45 94 100 100 100 100 100 100 100 99 30 86 5 55 100 100 100 100
100 100 100 100 100 100 100 100 100 100 100 100 100 100 100 95 100 100 100 100 74 60 81 62 82 100 99 100 100 100 79 26 98 100 100 100 100 100
100 100 100 100 100 100 100 100 100 100 100 100 100 100 100 100 100 100 88 98 98 76 62 14 5 5 2 0 86 100 83 100 48 73 100 100 100 64
100 100 100 100 100 100 100 100 100 100 100 100 100 100 100 100 67 100 53 5 15 54 6 5 5 58 99 100 6 51 90 100 100 100 100 99 90 91
100 100 100 100 100 100 100 100 99 100 100 100 100 100 100 99 55 53 58 20 5 5 9 83 98 100 100 99 89 6 98 90 98 98 100 93 82 100
100 100 100 100 100 100 100 100 100 100 100 100 87 52 11 44 38 54 5 5 19 88 100 89 78 99 100 100 77 22 89 100 100 100 89 99 100 100
100 100 100 100 100 100 100 100 100 92 72 74 21 31 60 35 13 71 73 88 100 100 100 87 21 94 100 100 100 96 98 100 56 78 100 100 100 100
100 100 100 100 100 99 91 33 6 5 6 9 68 8 5 6 47 78 96 100 100 89 29 100 100 20 68 100 100 99 99 80 99 100 100 100 100 100

GFSNE_prec_cloud_093.txt.gz
Cloud_Cover
100 100 100 100 100 100 100 100 100 100 100 100 100 100 100 99 100 100 89 70 100 100 100 100 100 100 37 76 94 17 47 5 96 50 64 72 91 88
100 100 100 100 100 100 100 100 100 100 100 100 100 100 92 100 99 93 74 10 100 100 100 100 100 100 100 99 73 98 81 78 100 78 100 96 95 100
100 100 100 100 100 76 100 100 100 86 89 100 100 100 99 100 91 75 77 62 96 100 99 100 100 100 100 100 100 100 100 100 96 99 100 100 100 100
100 100 100 100 100 89 100 100 77 100 99 98 34 77 93 100 40 100 98 100 100 100 100 100 100 100 100 100 100 100 100 100 100 100 100 93 100 100
100 100 100 100 100 100 100 100 100 95 94 100 96 99 100 97 100 100 100 100 100 100 100 100 100 100 100 100 100 100 100 100 100 100 100 100 100 100
99 100 100 100 100 100 100 100 57 70 100 100 100 100 100 100 100 100 100 100 100 100 100 100 100 100 100 100 100 100 100 100 100 100 100 100 100 100
80 13 97 100 96 77 66 35 82 100 100 100 100 100 100 100 100 91 100 100 100 100 100 100 100 100 100 100 100 100 100 100 100 100 100 100 100 99
80 100 98 100 100 100 100 100 100 100 100 100 100 100 100 100 100 100 100 100 100 100 100 100 100 100 100 100 100 100 100 100 100 100 100 100 100 100
100 100 100 100 100 100 100 100 100 100 100 100 100 100 100 100 100 100 100 100 100 100 92 98 100 100 100 100 100 100 100 100 100 69 18 98 100 100
100 100 100 100 100 100 100 100 100 100 100 100 100 100 100 100 87 98 96 96 77 98 59 95 100 100 100 100 100 100 100 100 100 100 90 62 100 100
100 100 100 100 100 100 100 100 100 100 100 100 100 100 100 100 92 96 95 99 80 100 100 82 99 100 100 100 100 80 98 86 81 100 100 100 100 100
100 100 100 100 100 100 100 100 100 100 100 100 100 100 100 100 97 100 100 100 100 100 100 84 60 94 95 91 86 97 38 100 92 100 100 100 100 100
100 100 100 100 100 100 100 100 100 100 100 100 100 100 100 100 99 97 100 100 100 100 99 84 95 76 92 98 100 92 100 79 93 56 90 77 100 100
100 100 100 100 100 100 100 100 100 100 100 100 100 100 100 100 85 100 100 91 71 98 100 85 18 70 97 100 100 100 94 97 24 28 17 5 74 97
100 100 100 100 100 100 100 100 100 100 100 100 100 100 100 100 100 100 100 100 100 100 100 100 100 100 100 100 100 96 53 75 100 87 6 29 24 97
100 100 100 100 100 100 100 100 100 100 100 100 100 100 100 100 100 100 100 100 100 100 100 100 100 100 100 94 6 5 5 45 97 100 95 6 73 100
100 100 100 100 100 100 100 100 100 100 100 100 100 100 100 100 100 100 100 99 100 100 100 100 100 90 97 77 17 77 96 40 11 53 99 23 60 100
100 100 100 100 100 100 100 100 100 100 100 100 100 100 100 100 100 100 100 100 100 100 100 100 100 60 7 7 16 7 4 5 5 29 41 98 71 99
100 100 100 100 100 100 100 100 100 100 100 100 100 100 100 100 100 100 100 100 100 100 55 6 5 18 96 87 1 82 99 13 5 5 7 60 100 93
100 100 100 100 100 100 100 100 100 100 97 100 100 100 100 100 100 100 88 100 56 41 31 5 5 43 99 100 100 61 42 57 7 45 96 47 59 100
100 100 100 100 100 100 100 100 100 97 100 100 100 100 100 100 89 78 15 50 24 77 96 78 5 14 100 48 49 6 4 8 100 100 100 100 100 96
100 100 100 100 100 100 100 100 93 100 100 84 94 100 65 32 24 32 29 93 99 89 86 86 68 43 5 62 98 88 54 5 83 83 100 100 100 100
100 100 100 100 100 99 32 99 100 100 91 62 57 96 81 45 10 16 56 60 84 100 100 98 46 64 100 100 100 100 100 89 74 76 100 100 100 100